TimeMDT,TemperatureF,Dew PointF,Humidity,Sea Level PressureIn,VisibilityMPH,Wind Direction,Wind SpeedMPH,Gust SpeedMPH,PrecipitationIn,Events,Conditions,WindDirDegrees,DateUTC
12:15 AM,71.6,33.8,25,30.17,10.0,West,4.6,-,N/A,,Clear,280,2012-10-05 06:15:00
12:35 AM,62.6,32.0,32,30.17,10.0,Calm,Calm,-,N/A,,Clear,0,2012-10-05 06:35:00
12:55 AM,62.6,32.0,32,30.17,10.0,Calm,Calm,-,N/A,,Clear,0,2012-10-05 06:55:00
1:15 AM,62.6,32.0,32,30.17,10.0,West,5.8,-,N/A,,Clear,270,2012-10-05 07:15:00
1:35 AM,69.8,33.8,27,30.17,10.0,West,9.2,-,N/A,,Clear,260,2012-10-05 07:35:00
1:55 AM,68.0,33.8,28,30.17,10.0,West,9.2,-,N/A,,Clear,260,2012-10-05 07:55:00
2:15 AM,66.2,32.0,28,30.17,10.0,NNW,6.9,-,N/A,,Clear,330,2012-10-05 08:15:00
2:35 AM,64.4,33.8,32,30.16,10.0,West,8.1,-,N/A,,Clear,280,2012-10-05 08:35:00
2:55 AM,66.2,33.8,30,30.16,10.0,West,9.2,-,N/A,,Clear,280,2012-10-05 08:55:00
3:15 AM,64.4,33.8,32,30.16,10.0,WNW,8.1,-,N/A,,Clear,290,2012-10-05 09:15:00
3:35 AM,66.2,33.8,30,30.15,10.0,WNW,8.1,-,N/A,,Clear,290,2012-10-05 09:35:00
3:55 AM,64.4,33.8,32,30.15,10.0,WNW,9.2,-,N/A,,Clear,300,2012-10-05 09:55:00
4:15 AM,62.6,33.8,34,30.15,10.0,NW,8.1,-,N/A,,Clear,320,2012-10-05 10:15:00
4:35 AM,60.8,33.8,36,30.15,10.0,NW,8.1,-,N/A,,Clear,310,2012-10-05 10:35:00
4:55 AM,60.8,33.8,36,30.15,10.0,NW,8.1,-,N/A,,Clear,310,2012-10-05 10:55:00
5:15 AM,60.8,33.8,36,30.15,10.0,NW,9.2,-,N/A,,Clear,310,2012-10-05 11:15:00
5:35 AM,60.8,33.8,36,30.15,10.0,WNW,10.4,-,N/A,,Clear,300,2012-10-05 11:35:00
5:55 AM,60.8,33.8,36,30.16,10.0,WNW,8.1,-,N/A,,Clear,290,2012-10-05 11:55:00
6:15 AM,59.0,33.8,39,30.16,10.0,West,5.8,-,N/A,,Clear,280,2012-10-05 12:15:00
6:35 AM,57.2,33.8,41,30.17,10.0,WNW,6.9,-,N/A,,Clear,290,2012-10-05 12:35:00
6:55 AM,57.2,33.8,41,30.18,10.0,West,8.1,-,N/A,,Clear,280,2012-10-05 12:55:00
7:15 AM,57.2,33.8,41,30.18,10.0,WNW,6.9,-,N/A,,Clear,290,2012-10-05 13:15:00
7:35 AM,59.0,35.6,42,30.18,10.0,WNW,6.9,-,N/A,,Clear,300,2012-10-05 13:35:00
7:55 AM,60.8,35.6,39,30.18,10.0,WNW,4.6,-,N/A,,Clear,300,2012-10-05 13:55:00
8:15 AM,64.4,35.6,34,30.18,10.0,NW,3.5,-,N/A,,Clear,310,2012-10-05 14:15:00
8:35 AM,64.4,33.8,32,30.19,10.0,Calm,Calm,-,N/A,,Clear,0,2012-10-05 14:35:00
8:55 AM,62.6,35.6,37,30.19,10.0,Calm,Calm,-,N/A,,Clear,0,2012-10-05 14:55:00
9:15 AM,66.2,35.6,32,30.20,10.0,Calm,Calm,-,N/A,,Clear,0,2012-10-05 15:15:00
9:35 AM,71.6,37.4,29,30.20,10.0,NNW,4.6,-,N/A,,Clear,340,2012-10-05 15:35:00
9:55 AM,73.4,37.4,27,30.20,10.0,NNW,3.5,-,N/A,,Clear,330,2012-10-05 15:55:00
10:15 AM,77.0,39.2,26,30.20,10.0,WNW,8.1,-,N/A,,Clear,290,2012-10-05 16:15:00
10:35 AM,77.0,37.4,24,30.19,10.0,NW,8.1,-,N/A,,Clear,320,2012-10-05 16:35:00
10:55 AM,77.0,37.4,24,30.19,10.0,NW,11.5,-,N/A,,Clear,310,2012-10-05 16:55:00
11:15 AM,78.8,37.4,23,30.19,10.0,NW,10.4,-,N/A,,Clear,310,2012-10-05 17:15:00
11:35 AM,78.8,37.4,23,30.18,10.0,NNW,10.4,16.1,N/A,,Clear,330,2012-10-05 17:35:00
11:55 AM,80.6,37.4,21,30.18,10.0,NNW,11.5,16.1,N/A,,Clear,330,2012-10-05 17:55:00
12:35 PM,82.4,35.6,19,30.16,10.0,West,3.5,-,N/A,,Clear,260,2012-10-05 18:35:00
12:55 PM,82.4,33.8,17,30.15,10.0,West,6.9,18.4,N/A,,Clear,280,2012-10-05 18:55:00
1:15 PM,86.0,32.0,14,30.14,10.0,West,15.0,24.2,N/A,,Clear,270,2012-10-05 19:15:00
1:35 PM,86.0,30.2,13,30.13,10.0,West,13.8,20.7,N/A,,Clear,280,2012-10-05 19:35:00
1:55 PM,86.0,28.4,12,30.12,10.0,West,17.3,27.6,N/A,,Clear,260,2012-10-05 19:55:00
2:15 PM,86.0,26.6,12,30.11,10.0,West,19.6,26.5,N/A,,Clear,280,2012-10-05 20:15:00
2:35 PM,86.0,26.6,12,30.10,10.0,West,15.0,23.0,N/A,,Clear,280,2012-10-05 20:35:00
2:55 PM,87.8,26.6,11,30.09,10.0,West,16.1,23.0,N/A,,Clear,260,2012-10-05 20:55:00
3:15 PM,86.0,26.6,12,30.09,10.0,West,11.5,19.6,N/A,,Clear,270,2012-10-05 21:15:00
3:35 PM,87.8,26.6,11,30.07,10.0,West,12.7,19.6,N/A,,Clear,280,2012-10-05 21:35:00
3:55 PM,87.8,24.8,10,30.07,10.0,WNW,13.8,-,N/A,,Clear,290,2012-10-05 21:55:00
4:15 PM,87.8,24.8,10,30.06,10.0,WNW,12.7,21.9,N/A,,Clear,290,2012-10-05 22:15:00
4:35 PM,87.8,24.8,10,30.06,10.0,West,15.0,23.0,N/A,,Clear,280,2012-10-05 22:35:00
4:55 PM,87.8,23.0,9,30.05,10.0,WNW,13.8,23.0,N/A,,Clear,300,2012-10-05 22:55:00
5:15 PM,87.8,23.0,9,30.05,10.0,West,13.8,20.7,N/A,,Clear,280,2012-10-05 23:15:00
5:35 PM,86.0,23.0,10,30.05,10.0,WNW,12.7,-,N/A,,Clear,290,2012-10-05 23:35:00
5:55 PM,86.0,24.8,11,30.04,10.0,West,15.0,23.0,N/A,,Clear,270,2012-10-05 23:55:00
6:15 PM,84.2,26.6,12,30.04,10.0,WNW,11.5,-,N/A,,Clear,290,2012-10-06 00:15:00
6:35 PM,82.4,26.6,13,30.04,10.0,WNW,9.2,-,N/A,,Clear,300,2012-10-06 00:35:00
6:55 PM,80.6,26.6,14,30.04,10.0,WNW,8.1,-,N/A,,Clear,300,2012-10-06 00:55:00
7:15 PM,78.8,26.6,15,30.05,10.0,NW,8.1,-,N/A,,Clear,310,2012-10-06 01:15:00
7:35 PM,77.0,26.6,16,30.06,10.0,WNW,8.1,-,N/A,,Clear,290,2012-10-06 01:35:00
7:55 PM,75.2,24.8,15,30.06,10.0,West,6.9,-,N/A,,Clear,280,2012-10-06 01:55:00
8:15 PM,71.6,24.8,17,30.06,10.0,WNW,6.9,-,N/A,,Clear,290,2012-10-06 02:15:00
8:35 PM,71.6,23.0,16,30.06,10.0,WNW,8.1,-,N/A,,Clear,290,2012-10-06 02:35:00
8:55 PM,71.6,23.0,16,30.07,10.0,WNW,8.1,-,N/A,,Clear,290,2012-10-06 02:55:00
9:35 PM,71.6,21.2,15,30.07,10.0,West,8.1,-,N/A,,Clear,280,2012-10-06 03:35:00
9:55 PM,69.8,21.2,16,30.07,10.0,WNW,8.1,-,N/A,,Clear,300,2012-10-06 03:55:00
10:15 PM,64.4,21.2,19,30.08,10.0,NNW,5.8,-,N/A,,Clear,330,2012-10-06 04:15:00
10:35 PM,64.4,21.2,19,30.08,10.0,NW,5.8,-,N/A,,Clear,320,2012-10-06 04:35:00
10:55 PM,62.6,21.2,20,30.08,10.0,Calm,Calm,-,N/A,,Clear,0,2012-10-06 04:55:00
11:15 PM,62.6,23.0,22,30.08,10.0,Calm,Calm,-,N/A,,Clear,0,2012-10-06 05:15:00
11:35 PM,60.8,23.0,23,30.08,10.0,Calm,Calm,-,N/A,,Clear,0,2012-10-06 05:35:00
11:55 PM,60.8,24.8,25,30.08,10.0,NW,3.5,-,N/A,,Clear,320,2012-10-06 05:55:00